一网星座-0509星 (ONEWEB-0509 )

导读 | 星芒AI

ONEWEB-0509 是 OneWeb 卫星星座计划中的一颗低轨通信卫星,旨在为全球提供高速互联网服务。该卫星由 OneWeb 公司部署,采用先进通信技术,支持偏远地区的网络连接。其发射是 OneWeb 恢复运营和扩展全球覆盖的重要一步。该卫星运行在约 1200 公里的轨道高度,与其他星座卫星协同工作,提升系统稳定性和数据传输能力。ONEWEB-0509 的成功部署有助于推动全球数字包容性,特别是在航空、航海和农村地区。

基本信息
目录编号:
54127
目录名称:
ONEWEB-0509
国际标识:
2022-138Q
轨道中心:
EARTH
卫星名称:
一网星座-0509星
卫星全名:
一网星座-0509星 (ONEWEB-0509 )
卫星状态:
在轨 (已飞行1150 天)
发射日期:
2022-10-22 UTC
国别 :
英国 (GB)
星等 :
--
轨道信息
数据来源 国际轨道数据 AOE轨道数据
星历时间 2025-12-15T06:23:27+0800
20小时前
查看轨道信息
2025-12-12T06:00:00+0800
3天前
查看轨道信息
半长轴 7563.911km 7563.915km
偏心率 0.0001904 0.0001952
轨道倾角 87.921° 87.922°
近地点辐角 85.169° 80.689°
升交点赤经 341.611° 342.212°
平近点角 274.966° 357.272°
近地点 1184.335km 1184.303km
远地点 1187.217km 1187.257km
周期 109.114分钟 109.114分钟
每日圈数 13.197243 13.197233
详细信息
平衡模式:
三轴稳定
覆盖范围:
全球
运营商:
一网卫星公司
运营商所在国:
英国
制造商(研发单位):
一网卫星公司
制造商所在国:
英国
使用方式:
暂无
卫星简介
OneWeb卫星网络由648颗重约125公斤的微型卫星组成,运行在1200公里的轨道上。 每颗卫星都能够提供至少每秒8千兆位的吞吐量,以使用其高吞吐量的Ku频段有效载荷为家庭和移动平台提供互联网接入。该卫星仍在工作。
2D轨道图
3D轨道图
轨道高度分析图
轨道倾角分析图
轨道综合分析图
查看轨道综合分析图